Regional Weather Roundup
Issued by NWS

Home | Current Version | Previous Version | Text Only | Print | Product List | Glossary Off
Versions: 1 2 3 4 5 6 7 8 9 10 11 12 13 14 15 16 17 18 19 20 21 22 23 24 25 26 27 28 29 30 31 32 33 34 35 36 37 38 39 40 41 42 43 44 45 46 47 48 49 50

000
ASUS45 KBOI 300810
RWRID
WEATHER ROUNDUP FOR IDAHO
NATIONAL WEATHER SERVICE BOISE ID
200 AM MDT TUE SEP 30 2014

NOTE: "FAIR" INDICATES FEW OR NO CLOUDS BELOW 12000 FEET
WITH NO SIGNIFICANT WEATHER AND/OR OBSTRUCTIONS TO VISIBILITY

IDZ012-014-300900-
SOUTHWEST IDAHO


CITY           SKY/WX    TMP DP  RH WIND       PRES   REMARKS
BOISE          CLOUDY    53  50  89 SE5       29.93S
CALDWELL       CLOUDY    52  45  76 CALM      29.94F
MOUNTAIN HOME  DRIZZLE   52  52 100 CALM      29.93F FOG
$$

IDZ016-017-300900-
SOUTHCENTRAL IDAHO


CITY           SKY/WX    TMP DP  RH WIND       PRES   REMARKS
BURLEY         LGT RAIN  51  48  89 SW8       29.95F
JEROME         CLOUDY    50  49  96 SW5       29.95F
TWIN FALLS     CLOUDY    52  47  83 S9        29.95F
$$

IDZ019>023-300900-
SOUTHEAST IDAHO


CITY           SKY/WX    TMP DP  RH WIND       PRES   REMARKS
IDAHO FALLS    CLOUDY    50  45  83 S9        29.97R
POCATELLO      CLOUDY    50  50 100 SW10      29.97S
REXBURG        CLOUDY    47  44  90 S9        29.96S
$$

IDZ006-010-011-018-031-032-300900-
CENTRAL IDAHO MOUNTAINS


CITY           SKY/WX    TMP DP  RH WIND       PRES   REMARKS
MCCALL         CLOUDY    46  45  96 CALM      29.95S FOG
HAILEY         MOCLDY    43  43 100 CALM      29.97S FOG
STANLEY          N/A     38  37  97 CALM      30.01S
SALMON         CLOUDY    52  48  87 SE5       29.91S
CHALLIS        CLOUDY    49  47  93 CALM      29.94F
$$

IDZ002-004-006-007-026-300900-
NORTHERN IDAHO


CITY           SKY/WX    TMP DP  RH WIND       PRES   REMARKS
LEWISTON       LGT RAIN  58  56  93 NE5       29.84R
LOWELL           N/A     56  54  93 CALM      29.87S
COEUR D`ALENE  CLOUDY    57  48  72 S14G20    29.77S
MULLAN PASS    CLOUDY    43  42  97 VRB6      29.86F
$$



USA.gov is the U.S. government's official web portal to all federal, state and local government web resources and services.